Location: Robledo de Chavela
(40.5014°N, 4.2377°W)
Time: 19:11:29
(UTC+00:00)

Iridium 4 Rocket - Pass Details

Date: 18 April 2024
Orbit: 582 x 896 km, 86.9° (Epoch: 18 May)

Event Time Altitude Azimuth Distance (km) Brightness Sun altitude
Exits shadow 20:43:52 30° 150° (SSE) 1,447 4.4 -18.8°
Maximum altitude 20:46:24 55° 86° (E) 1,015 3.8 -19.2°
Drops below altitude 10° 20:52:03 10° 11° (N) 2,551 6.5 -20.0°
Sets 20:54:35 0° 7° (N) 3,511 7.3 -20.4°
